Year,Month,Day,Hour,Minute,Value (Times are PST for temperature in C)
2010,04,13,00,00,9.60
2010,04,13,00,01,9.60
2010,04,13,00,02,9.60
2010,04,13,00,03,9.50
2010,04,13,00,04,9.50
2010,04,13,00,05,9.50
2010,04,13,00,06,9.50
2010,04,13,00,07,9.40
2010,04,13,00,08,9.40
2010,04,13,00,09,9.40
2010,04,13,00,10,9.40
2010,04,13,00,11,9.40
2010,04,13,00,12,9.40
2010,04,13,00,13,9.40
2010,04,13,00,14,9.40
2010,04,13,00,15,9.40
2010,04,13,00,16,9.30
2010,04,13,00,17,9.30
2010,04,13,00,18,9.30
2010,04,13,00,19,9.30
2010,04,13,00,20,9.30
2010,04,13,00,21,9.30
2010,04,13,00,22,9.30
2010,04,13,00,23,9.30
2010,04,13,00,24,9.20
2010,04,13,00,25,9.20
2010,04,13,00,26,9.20
2010,04,13,00,27,9.20
2010,04,13,00,28,9.20
2010,04,13,00,29,9.20
2010,04,13,00,30,9.20
2010,04,13,00,31,9.20
2010,04,13,00,32,9.20
2010,04,13,00,33,9.10
2010,04,13,00,34,9.10
2010,04,13,00,35,9.10
2010,04,13,00,36,9.10
2010,04,13,00,37,9.10
2010,04,13,00,38,9.10
2010,04,13,00,39,9.10
2010,04,13,00,40,9.10
2010,04,13,00,41,9.10
2010,04,13,00,42,9.00
2010,04,13,00,43,9.00
2010,04,13,00,44,9.00
2010,04,13,00,45,9.00
2010,04,13,00,46,9.00
2010,04,13,00,47,8.90
2010,04,13,00,48,8.90
2010,04,13,00,49,8.90
2010,04,13,00,50,8.90
2010,04,13,00,51,8.90
2010,04,13,00,52,8.90
2010,04,13,00,53,8.90
2010,04,13,00,54,8.90
2010,04,13,00,55,8.90
2010,04,13,00,56,8.80
2010,04,13,00,57,8.80
2010,04,13,00,58,8.80
2010,04,13,00,59,8.80
2010,04,13,01,00,8.80
2010,04,13,01,01,8.80
2010,04,13,01,02,8.70
2010,04,13,01,03,8.70
2010,04,13,01,04,8.70
2010,04,13,01,05,8.70
2010,04,13,01,06,8.70
2010,04,13,01,07,8.70
2010,04,13,01,08,8.60
2010,04,13,01,09,8.60
2010,04,13,01,10,8.60
2010,04,13,01,11,8.60
2010,04,13,01,12,8.60
2010,04,13,01,13,8.50
2010,04,13,01,14,8.50
2010,04,13,01,15,8.50
2010,04,13,01,16,8.50
2010,04,13,01,17,8.40
2010,04,13,01,18,8.40
2010,04,13,01,19,8.40
2010,04,13,01,20,8.40
2010,04,13,01,21,8.40
2010,04,13,01,22,8.40
2010,04,13,01,23,8.30
2010,04,13,01,24,8.30
2010,04,13,01,25,8.30
2010,04,13,01,26,8.30
2010,04,13,01,27,8.30
2010,04,13,01,28,8.30
2010,04,13,01,29,8.30
2010,04,13,01,30,8.30
2010,04,13,01,31,8.30
2010,04,13,01,32,8.20
2010,04,13,01,33,8.20
2010,04,13,01,34,8.20
2010,04,13,01,35,8.20
2010,04,13,01,36,8.20
2010,04,13,01,37,8.20
2010,04,13,01,38,8.20
2010,04,13,01,39,8.20
2010,04,13,01,40,8.20
2010,04,13,01,41,8.20
2010,04,13,01,42,8.10
2010,04,13,01,43,8.10
2010,04,13,01,44,8.10
2010,04,13,01,45,8.10
2010,04,13,01,46,8.10
2010,04,13,01,47,8.10
2010,04,13,01,48,8.10
2010,04,13,01,49,8.10
2010,04,13,01,50,8.10
2010,04,13,01,51,8.10
2010,04,13,01,52,8.10
2010,04,13,01,53,8.10
2010,04,13,01,54,8.10
2010,04,13,01,55,8.10
2010,04,13,01,56,8.00
2010,04,13,01,57,8.00
2010,04,13,01,58,8.00
2010,04,13,01,59,8.00
2010,04,13,02,00,8.00
2010,04,13,02,01,8.00
2010,04,13,02,02,8.00
2010,04,13,02,03,8.00
2010,04,13,02,04,8.00
2010,04,13,02,05,8.00
2010,04,13,02,06,7.90
2010,04,13,02,07,7.90
2010,04,13,02,08,7.90
2010,04,13,02,09,7.90
2010,04,13,02,10,7.90
2010,04,13,02,11,7.90
2010,04,13,02,12,7.90
2010,04,13,02,13,7.90
2010,04,13,02,14,7.90
2010,04,13,02,15,7.90
2010,04,13,02,16,7.90
2010,04,13,02,17,7.90
2010,04,13,02,18,7.90
2010,04,13,02,19,7.90
2010,04,13,02,20,7.90
2010,04,13,02,21,7.90
2010,04,13,02,22,7.90
2010,04,13,02,23,7.90
2010,04,13,02,24,7.90
2010,04,13,02,25,7.90
2010,04,13,02,26,7.90
2010,04,13,02,27,7.90
2010,04,13,02,28,7.90
2010,04,13,02,29,7.90
2010,04,13,02,30,7.90
2010,04,13,02,31,7.90
2010,04,13,02,32,7.90
2010,04,13,02,33,7.90
2010,04,13,02,34,7.90
2010,04,13,02,35,7.90
2010,04,13,02,36,7.90
2010,04,13,02,37,7.80
2010,04,13,02,38,7.80
2010,04,13,02,39,7.80
2010,04,13,02,40,7.80
2010,04,13,02,41,7.80
2010,04,13,02,42,7.80
2010,04,13,02,43,7.80
2010,04,13,02,44,7.80
2010,04,13,02,45,7.80
2010,04,13,02,46,7.80
2010,04,13,02,47,7.80
2010,04,13,02,48,7.80
2010,04,13,02,49,7.80
2010,04,13,02,50,7.80
2010,04,13,02,51,7.80
2010,04,13,02,52,7.80
2010,04,13,02,53,7.80
2010,04,13,02,54,7.80
2010,04,13,02,55,7.80
2010,04,13,02,56,7.80
2010,04,13,02,57,7.80
2010,04,13,02,58,7.80
2010,04,13,02,59,7.80
2010,04,13,03,00,7.80
2010,04,13,03,01,7.80
2010,04,13,03,02,7.80
2010,04,13,03,03,7.80
2010,04,13,03,04,7.80
2010,04,13,03,05,7.80
2010,04,13,03,06,7.80
2010,04,13,03,07,7.80
2010,04,13,03,08,7.80
2010,04,13,03,09,7.70
2010,04,13,03,10,7.70
2010,04,13,03,11,7.70
2010,04,13,03,12,7.70
2010,04,13,03,13,7.70
2010,04,13,03,14,7.70
2010,04,13,03,15,7.70
2010,04,13,03,16,7.70
2010,04,13,03,17,7.70
2010,04,13,03,18,7.70
2010,04,13,03,19,7.70
2010,04,13,03,20,7.70
2010,04,13,03,21,7.70
2010,04,13,03,22,7.70
2010,04,13,03,23,7.70
2010,04,13,03,24,7.70
2010,04,13,03,25,7.70
2010,04,13,03,26,7.60
2010,04,13,03,27,7.60
2010,04,13,03,28,7.60
2010,04,13,03,29,7.60
2010,04,13,03,30,7.60
2010,04,13,03,31,7.60
2010,04,13,03,32,7.60
2010,04,13,03,33,7.50
2010,04,13,03,34,7.50
2010,04,13,03,35,7.50
2010,04,13,03,36,7.50
2010,04,13,03,37,7.50
2010,04,13,03,38,7.40
2010,04,13,03,39,7.40
2010,04,13,03,40,7.40
2010,04,13,03,41,7.40
2010,04,13,03,42,7.40
2010,04,13,03,43,7.40
2010,04,13,03,44,7.40
2010,04,13,03,45,7.40
2010,04,13,03,46,7.30
2010,04,13,03,47,7.30
2010,04,13,03,48,7.30
2010,04,13,03,49,7.30
2010,04,13,03,50,7.30
2010,04,13,03,51,7.30
2010,04,13,03,52,7.30
2010,04,13,03,53,7.30
2010,04,13,03,54,7.30
2010,04,13,03,55,7.30
2010,04,13,03,56,7.20
2010,04,13,03,57,7.20
2010,04,13,03,58,7.20
2010,04,13,03,59,7.20
2010,04,13,04,00,7.20
2010,04,13,04,01,7.20
2010,04,13,04,02,7.20
2010,04,13,04,03,7.20
2010,04,13,04,04,7.20
2010,04,13,04,05,7.20
2010,04,13,04,06,7.20
2010,04,13,04,07,7.20
2010,04,13,04,08,7.20
2010,04,13,04,09,7.20
2010,04,13,04,10,7.20
2010,04,13,04,11,7.20
2010,04,13,04,12,7.20
2010,04,13,04,13,7.20
2010,04,13,04,14,7.20
2010,04,13,04,15,7.20
2010,04,13,04,16,7.10
2010,04,13,04,17,7.10
2010,04,13,04,18,7.10
2010,04,13,04,19,7.10
2010,04,13,04,20,7.10
2010,04,13,04,21,7.10
2010,04,13,04,22,7.10
2010,04,13,04,23,7.10
2010,04,13,04,24,7.10
2010,04,13,04,25,7.10
2010,04,13,04,26,7.10
2010,04,13,04,27,7.10
2010,04,13,04,28,7.10
2010,04,13,04,29,7.10
2010,04,13,04,30,7.10
2010,04,13,04,31,7.10
2010,04,13,04,32,7.10
2010,04,13,04,33,7.10
2010,04,13,04,34,7.10
2010,04,13,04,35,7.10
2010,04,13,04,36,7.10
2010,04,13,04,37,7.10
2010,04,13,04,38,7.10
2010,04,13,04,39,7.10
2010,04,13,04,40,7.10
2010,04,13,04,41,7.10
2010,04,13,04,42,7.10
2010,04,13,04,43,7.10
2010,04,13,04,44,7.10
2010,04,13,04,45,7.10
2010,04,13,04,46,7.10
2010,04,13,04,47,7.10
2010,04,13,04,48,7.10
2010,04,13,04,49,7.10
2010,04,13,04,50,7.10
2010,04,13,04,51,7.10
2010,04,13,04,52,7.10
2010,04,13,04,53,7.10
2010,04,13,04,54,7.10
2010,04,13,04,55,7.10
2010,04,13,04,56,7.10
2010,04,13,04,57,7.10
2010,04,13,04,58,7.10
2010,04,13,04,59,7.00
2010,04,13,05,00,7.10
2010,04,13,05,01,7.00
2010,04,13,05,02,7.00
2010,04,13,05,03,7.00
2010,04,13,05,04,7.00
2010,04,13,05,05,7.00
2010,04,13,05,06,7.00
2010,04,13,05,07,7.00
2010,04,13,05,08,7.00
2010,04,13,05,09,7.00
2010,04,13,05,10,7.00
2010,04,13,05,11,7.00
2010,04,13,05,12,7.00
2010,04,13,05,13,7.00
2010,04,13,05,14,7.00
2010,04,13,05,15,7.00
2010,04,13,05,16,6.90
2010,04,13,05,17,6.90
2010,04,13,05,18,6.90
2010,04,13,05,19,6.90
2010,04,13,05,20,6.90
2010,04,13,05,21,6.90
2010,04,13,05,22,6.90
2010,04,13,05,23,6.90
2010,04,13,05,24,6.90
2010,04,13,05,25,6.90
2010,04,13,05,26,6.90
2010,04,13,05,27,6.90
2010,04,13,05,28,6.90
2010,04,13,05,29,6.90
2010,04,13,05,30,6.80
2010,04,13,05,31,6.90
2010,04,13,05,32,6.80
2010,04,13,05,33,6.80
2010,04,13,05,34,6.80
2010,04,13,05,35,6.80
2010,04,13,05,36,6.80
2010,04,13,05,37,6.80
2010,04,13,05,38,6.80
2010,04,13,05,39,6.80
2010,04,13,05,40,6.90
2010,04,13,05,41,6.90
2010,04,13,05,42,6.90
2010,04,13,05,43,6.90
2010,04,13,05,44,6.90
2010,04,13,05,45,6.90
2010,04,13,05,46,6.90
2010,04,13,05,47,6.90
2010,04,13,05,48,6.90
2010,04,13,05,49,6.90
2010,04,13,05,50,6.90
2010,04,13,05,51,6.90
2010,04,13,05,52,6.90
2010,04,13,05,53,6.90
2010,04,13,05,54,6.90
2010,04,13,05,55,6.90
2010,04,13,05,56,6.90
2010,04,13,05,57,6.90
2010,04,13,05,58,6.90
2010,04,13,05,59,6.90
2010,04,13,06,00,6.90
2010,04,13,06,01,6.90
2010,04,13,06,02,6.90
2010,04,13,06,03,6.80
2010,04,13,06,04,6.80
2010,04,13,06,05,6.80
2010,04,13,06,06,6.80
2010,04,13,06,07,6.80
2010,04,13,06,08,6.80
2010,04,13,06,09,6.80
2010,04,13,06,10,6.70
2010,04,13,06,11,6.70
2010,04,13,06,12,6.70
2010,04,13,06,13,6.70
2010,04,13,06,14,6.70
2010,04,13,06,15,6.60
2010,04,13,06,16,6.60
2010,04,13,06,17,6.60
2010,04,13,06,18,6.60
2010,04,13,06,19,6.60
2010,04,13,06,20,6.60
2010,04,13,06,21,6.50
2010,04,13,06,22,6.50
2010,04,13,06,23,6.50
2010,04,13,06,24,6.40
2010,04,13,06,25,6.40
2010,04,13,06,26,6.40
2010,04,13,06,27,6.40
2010,04,13,06,28,6.30
2010,04,13,06,29,6.30
2010,04,13,06,30,6.30
2010,04,13,06,31,6.30
2010,04,13,06,32,6.30
2010,04,13,06,33,6.20
2010,04,13,06,34,6.20
2010,04,13,06,35,6.20
2010,04,13,06,36,6.20
2010,04,13,06,37,6.20
2010,04,13,06,38,6.10
2010,04,13,06,39,6.10
2010,04,13,06,40,6.10
2010,04,13,06,41,6.10
2010,04,13,06,42,6.10
2010,04,13,06,43,6.00
2010,04,13,06,44,6.00
2010,04,13,06,45,6.00
2010,04,13,06,46,5.90
2010,04,13,06,47,5.90
2010,04,13,06,48,5.90
2010,04,13,06,49,5.90
2010,04,13,06,50,5.90
2010,04,13,06,51,5.80
2010,04,13,06,52,5.80
2010,04,13,06,53,5.80
2010,04,13,06,54,5.80
2010,04,13,06,55,5.80
2010,04,13,06,56,5.80
2010,04,13,06,57,5.80
2010,04,13,06,58,5.70
2010,04,13,06,59,5.70
2010,04,13,07,00,5.70
2010,04,13,07,01,5.70
2010,04,13,07,02,5.70
2010,04,13,07,03,5.70
2010,04,13,07,04,5.70
2010,04,13,07,05,5.70
2010,04,13,07,06,5.70
2010,04,13,07,07,5.70
2010,04,13,07,08,5.70
2010,04,13,07,09,5.70
2010,04,13,07,10,5.70
2010,04,13,07,11,5.70
2010,04,13,07,12,5.70
2010,04,13,07,13,5.70
2010,04,13,07,14,5.70
2010,04,13,07,15,5.70
2010,04,13,07,16,5.70
2010,04,13,07,17,5.70
2010,04,13,07,18,5.70
2010,04,13,07,19,5.70
2010,04,13,07,20,5.70
2010,04,13,07,21,5.70
2010,04,13,07,22,5.70
2010,04,13,07,23,5.70
2010,04,13,07,24,5.70
2010,04,13,07,25,5.70
2010,04,13,07,26,5.70
2010,04,13,07,27,5.70
2010,04,13,07,28,5.80
2010,04,13,07,29,5.80
2010,04,13,07,30,5.80
2010,04,13,07,31,5.80
2010,04,13,07,32,5.80
2010,04,13,07,33,5.80
2010,04,13,07,34,5.80
2010,04,13,07,35,5.80
2010,04,13,07,36,5.80
2010,04,13,07,37,5.80
2010,04,13,07,38,5.90
2010,04,13,07,39,5.90
2010,04,13,07,40,5.90
2010,04,13,07,41,5.90
2010,04,13,07,42,5.90
2010,04,13,07,43,5.90
2010,04,13,07,44,5.90
2010,04,13,07,45,6.00
2010,04,13,07,46,6.00
2010,04,13,07,47,6.00
2010,04,13,07,48,6.00
2010,04,13,07,49,6.10
2010,04,13,07,50,6.10
2010,04,13,07,51,6.10
2010,04,13,07,52,6.10
2010,04,13,07,53,6.20
2010,04,13,07,54,6.20
2010,04,13,07,55,6.20
2010,04,13,07,56,6.30
2010,04,13,07,57,6.30
2010,04,13,07,58,6.30
2010,04,13,07,59,6.30
2010,04,13,08,00,6.40
2010,04,13,08,01,6.40
2010,04,13,08,02,6.50
2010,04,13,08,03,6.50
2010,04,13,08,04,6.60
2010,04,13,08,05,6.60
2010,04,13,08,06,6.70
2010,04,13,08,07,6.70
2010,04,13,08,08,6.80
2010,04,13,08,09,6.80
2010,04,13,08,10,6.90
2010,04,13,08,11,6.90
2010,04,13,08,12,7.00
2010,04,13,08,13,7.00
2010,04,13,08,14,7.10
2010,04,13,08,15,7.10
2010,04,13,08,16,7.20
2010,04,13,08,17,7.20
2010,04,13,08,18,7.20
2010,04,13,08,19,7.20
2010,04,13,08,20,7.20
2010,04,13,08,21,7.30
2010,04,13,08,22,7.30
2010,04,13,08,23,7.30
2010,04,13,08,24,7.30
2010,04,13,08,25,7.40
2010,04,13,08,26,7.40
2010,04,13,08,27,7.40
2010,04,13,08,28,7.40
2010,04,13,08,29,7.50
2010,04,13,08,30,7.50
2010,04,13,08,31,7.60
2010,04,13,08,32,7.60
2010,04,13,08,33,7.60
2010,04,13,08,34,7.70
2010,04,13,08,35,7.70
2010,04,13,08,36,7.70
2010,04,13,08,37,7.80
2010,04,13,08,38,7.80
2010,04,13,08,39,7.80
2010,04,13,08,40,7.80
2010,04,13,08,41,7.90
2010,04,13,08,42,7.90
2010,04,13,08,43,8.00
2010,04,13,08,44,8.00
2010,04,13,08,45,8.10
2010,04,13,08,46,8.10
2010,04,13,08,47,8.10
2010,04,13,08,48,8.20
2010,04,13,08,49,8.20
2010,04,13,08,50,8.30
2010,04,13,08,51,8.30
2010,04,13,08,52,8.30
2010,04,13,08,53,8.30
2010,04,13,08,54,8.30
2010,04,13,08,55,8.30
2010,04,13,08,56,8.30
2010,04,13,08,57,8.40
2010,04,13,08,58,8.40
2010,04,13,08,59,8.40
2010,04,13,09,00,8.40
2010,04,13,09,01,8.50
2010,04,13,09,02,8.50
2010,04,13,09,03,8.50
2010,04,13,09,04,8.50
2010,04,13,09,05,8.60
2010,04,13,09,06,8.60
2010,04,13,09,07,8.60
2010,04,13,09,08,8.60
2010,04,13,09,09,8.60
2010,04,13,09,10,8.70
2010,04,13,09,11,8.70
2010,04,13,09,12,8.70
2010,04,13,09,13,8.70
2010,04,13,09,14,8.70
2010,04,13,09,15,8.70
2010,04,13,09,16,8.70
2010,04,13,09,17,8.70
2010,04,13,09,18,8.70
2010,04,13,09,19,8.70
2010,04,13,09,20,8.80
2010,04,13,09,21,8.80
2010,04,13,09,22,8.80
2010,04,13,09,23,8.80
2010,04,13,09,24,8.80
2010,04,13,09,25,8.80
2010,04,13,09,26,8.90
2010,04,13,09,27,8.90
2010,04,13,09,28,8.90
2010,04,13,09,29,9.00
2010,04,13,09,30,9.00
2010,04,13,09,31,9.10
2010,04,13,09,32,9.10
2010,04,13,09,33,9.10
2010,04,13,09,34,9.20
2010,04,13,09,35,9.20
2010,04,13,09,36,9.20
2010,04,13,09,37,9.30
2010,04,13,09,38,9.30
2010,04,13,09,39,9.30
2010,04,13,09,40,9.40
2010,04,13,09,41,9.40
2010,04,13,09,42,9.50
2010,04,13,09,43,9.50
2010,04,13,09,44,9.60
2010,04,13,09,45,9.60
2010,04,13,09,46,9.70
2010,04,13,09,47,9.70
2010,04,13,09,48,9.80
2010,04,13,09,49,9.80
2010,04,13,09,50,9.90
2010,04,13,09,51,9.90
2010,04,13,09,52,9.90
2010,04,13,09,53,10.00
2010,04,13,09,54,10.00
2010,04,13,09,55,10.00
2010,04,13,09,56,10.10
2010,04,13,09,57,10.10
2010,04,13,09,58,10.10
2010,04,13,09,59,10.10
2010,04,13,10,00,10.10
2010,04,13,10,01,10.20
2010,04,13,10,02,10.20
2010,04,13,10,03,10.30
2010,04,13,10,04,10.30
2010,04,13,10,05,10.40
2010,04,13,10,06,10.50
2010,04,13,10,07,10.60
2010,04,13,10,08,10.60
2010,04,13,10,09,10.70
2010,04,13,10,10,10.80
2010,04,13,10,11,10.80
2010,04,13,10,12,10.80
2010,04,13,10,13,10.80
2010,04,13,10,14,10.80
2010,04,13,10,15,10.80
2010,04,13,10,16,10.90
2010,04,13,10,17,10.90
2010,04,13,10,18,11.00
2010,04,13,10,19,11.10
2010,04,13,10,20,11.10
2010,04,13,10,21,11.10
2010,04,13,10,22,11.10
2010,04,13,10,23,11.10
2010,04,13,10,24,11.20
2010,04,13,10,25,11.20
2010,04,13,10,26,11.20
2010,04,13,10,27,11.30
2010,04,13,10,28,11.30
2010,04,13,10,29,11.40
2010,04,13,10,30,11.50
2010,04,13,10,31,11.60
2010,04,13,10,32,11.70
2010,04,13,10,33,11.80
2010,04,13,10,34,11.80
2010,04,13,10,35,11.80
2010,04,13,10,36,11.90
2010,04,13,10,37,11.80
2010,04,13,10,38,11.80
2010,04,13,10,39,11.80
2010,04,13,10,40,11.90
2010,04,13,10,41,11.90
2010,04,13,10,42,12.00
2010,04,13,10,43,12.00
2010,04,13,10,44,12.10
2010,04,13,10,45,12.10
2010,04,13,10,46,12.20
2010,04,13,10,47,12.20
2010,04,13,10,48,12.20
2010,04,13,10,49,12.20
2010,04,13,10,50,12.20
2010,04,13,10,51,12.20
2010,04,13,10,52,12.20
2010,04,13,10,53,12.20
2010,04,13,10,54,12.10
2010,04,13,10,55,12.00
2010,04,13,10,56,11.90
2010,04,13,10,57,11.90
2010,04,13,10,58,11.80
2010,04,13,10,59,11.80
2010,04,13,11,00,11.80
2010,04,13,11,01,11.80
2010,04,13,11,02,11.70
2010,04,13,11,03,11.60
2010,04,13,11,04,11.60
2010,04,13,11,05,11.60
2010,04,13,11,06,11.60
2010,04,13,11,07,11.70
2010,04,13,11,08,11.70
2010,04,13,11,09,11.70
2010,04,13,11,10,11.70
2010,04,13,11,11,11.70
2010,04,13,11,12,11.70
2010,04,13,11,13,11.80
2010,04,13,11,14,11.80
2010,04,13,11,15,11.80
2010,04,13,11,16,11.90
2010,04,13,11,17,11.90
2010,04,13,11,18,11.90
2010,04,13,11,19,11.90
2010,04,13,11,20,12.00
2010,04,13,11,21,12.10
2010,04,13,11,22,12.20
2010,04,13,11,23,12.30
2010,04,13,11,24,12.40
2010,04,13,11,25,12.40
2010,04,13,11,26,12.50
2010,04,13,11,27,12.60
2010,04,13,11,28,12.70
2010,04,13,11,29,12.70
2010,04,13,11,30,12.70
2010,04,13,11,31,12.70
2010,04,13,11,32,12.60
2010,04,13,11,33,12.60
2010,04,13,11,34,12.60
2010,04,13,11,35,12.60
2010,04,13,11,36,12.60
2010,04,13,11,37,12.60
2010,04,13,11,38,12.50
2010,04,13,11,39,12.50
2010,04,13,11,40,12.50
2010,04,13,11,41,12.50
2010,04,13,11,42,12.50
2010,04,13,11,43,12.60
2010,04,13,11,44,12.60
2010,04,13,11,45,12.60
2010,04,13,11,46,12.60
2010,04,13,11,47,12.60
2010,04,13,11,48,12.60
2010,04,13,11,49,12.60
2010,04,13,11,50,12.60
2010,04,13,11,51,12.60
2010,04,13,11,52,12.60
2010,04,13,11,53,12.50
2010,04,13,11,54,12.40
2010,04,13,11,55,12.40
2010,04,13,11,56,12.40
2010,04,13,11,57,12.40
2010,04,13,11,58,12.40
2010,04,13,11,59,12.40
2010,04,13,12,00,12.40
2010,04,13,12,01,12.40
2010,04,13,12,02,12.40
2010,04,13,12,03,12.40
2010,04,13,12,04,12.50
2010,04,13,12,05,12.50
2010,04,13,12,06,12.50
2010,04,13,12,07,12.50
2010,04,13,12,08,12.50
2010,04,13,12,09,12.50
2010,04,13,12,10,12.50
2010,04,13,12,11,12.50
2010,04,13,12,12,12.50
2010,04,13,12,13,12.40
2010,04,13,12,14,12.40
2010,04,13,12,15,12.30
2010,04,13,12,16,12.30
2010,04,13,12,17,12.30
2010,04,13,12,18,12.30
2010,04,13,12,19,12.40
2010,04,13,12,20,12.40
2010,04,13,12,21,12.40
2010,04,13,12,22,12.50
2010,04,13,12,23,12.50
2010,04,13,12,24,12.50
2010,04,13,12,25,12.60
2010,04,13,12,26,12.60
2010,04,13,12,27,12.70
2010,04,13,12,28,12.70
2010,04,13,12,29,12.70
2010,04,13,12,30,12.70
2010,04,13,12,31,12.80
2010,04,13,12,32,12.80
2010,04,13,12,33,12.70
2010,04,13,12,34,12.70
2010,04,13,12,35,12.70
2010,04,13,12,36,12.70
2010,04,13,12,37,12.70
2010,04,13,12,38,12.70
2010,04,13,12,39,12.70
2010,04,13,12,40,12.60
2010,04,13,12,41,12.70
2010,04,13,12,42,12.70
2010,04,13,12,43,12.70
2010,04,13,12,44,12.70
2010,04,13,12,45,12.60
2010,04,13,12,46,12.60
2010,04,13,12,47,12.60
2010,04,13,12,48,12.50
2010,04,13,12,49,12.50
2010,04,13,12,50,12.40
2010,04,13,12,51,12.40
2010,04,13,12,52,12.40
2010,04,13,12,53,12.40
2010,04,13,12,54,12.30
2010,04,13,12,55,12.30
2010,04,13,12,56,12.30
2010,04,13,12,57,12.30
2010,04,13,12,58,12.30
2010,04,13,12,59,12.30
2010,04,13,13,00,12.30
2010,04,13,13,01,12.40
2010,04,13,13,02,12.50
2010,04,13,13,03,12.50
2010,04,13,13,04,12.60
2010,04,13,13,05,12.70
2010,04,13,13,06,12.80
2010,04,13,13,07,12.80
2010,04,13,13,08,12.80
2010,04,13,13,09,12.80
2010,04,13,13,10,12.80
2010,04,13,13,11,12.70
2010,04,13,13,12,12.70
2010,04,13,13,13,12.60
2010,04,13,13,14,12.60
2010,04,13,13,15,12.60
2010,04,13,13,16,12.60
2010,04,13,13,17,12.60
2010,04,13,13,18,12.60
2010,04,13,13,19,12.50
2010,04,13,13,20,12.40
2010,04,13,13,21,12.30
2010,04,13,13,22,12.30
2010,04,13,13,23,12.30
2010,04,13,13,24,12.30
2010,04,13,13,25,12.30
2010,04,13,13,26,12.30
2010,04,13,13,27,12.30
2010,04,13,13,28,12.30
2010,04,13,13,29,12.30
2010,04,13,13,30,12.20
2010,04,13,13,31,12.20
2010,04,13,13,32,12.20
2010,04,13,13,33,12.20
2010,04,13,13,34,12.20
2010,04,13,13,35,12.20
2010,04,13,13,36,12.20
2010,04,13,13,37,12.20
2010,04,13,13,38,12.20
2010,04,13,13,39,12.20
2010,04,13,13,40,12.20
2010,04,13,13,41,12.20
2010,04,13,13,42,12.20
2010,04,13,13,43,12.20
2010,04,13,13,44,12.20
2010,04,13,13,45,12.20
2010,04,13,13,46,12.20
2010,04,13,13,47,12.10
2010,04,13,13,48,12.10
2010,04,13,13,49,12.10
2010,04,13,13,50,12.10
2010,04,13,13,51,12.10
2010,04,13,13,52,12.10
2010,04,13,13,53,12.10
2010,04,13,13,54,12.10
2010,04,13,13,55,12.10
2010,04,13,13,56,12.10
2010,04,13,13,57,12.10
2010,04,13,13,58,12.10
2010,04,13,13,59,12.10
2010,04,13,14,00,12.10
2010,04,13,14,01,12.10
2010,04,13,14,02,12.00
2010,04,13,14,03,12.00
2010,04,13,14,04,11.90
2010,04,13,14,05,11.90
2010,04,13,14,06,11.80
2010,04,13,14,07,11.70
2010,04,13,14,08,11.70
2010,04,13,14,09,11.60
2010,04,13,14,10,11.60
2010,04,13,14,11,11.60
2010,04,13,14,12,11.50
2010,04,13,14,13,11.50
2010,04,13,14,14,11.40
2010,04,13,14,15,11.40
2010,04,13,14,16,11.30
2010,04,13,14,17,11.30
2010,04,13,14,18,11.20
2010,04,13,14,19,11.20
2010,04,13,14,20,11.10
2010,04,13,14,21,11.10
2010,04,13,14,22,11.00
2010,04,13,14,23,11.00
2010,04,13,14,24,10.90
2010,04,13,14,25,10.80
2010,04,13,14,26,10.70
2010,04,13,14,27,10.70
2010,04,13,14,28,10.60
2010,04,13,14,29,10.50
2010,04,13,14,30,10.50
2010,04,13,14,31,10.40
2010,04,13,14,32,10.40
2010,04,13,14,33,10.30
2010,04,13,14,34,10.30
2010,04,13,14,35,10.20
2010,04,13,14,36,10.20
2010,04,13,14,37,10.20
2010,04,13,14,38,10.10
2010,04,13,14,39,10.20
2010,04,13,14,40,10.20
2010,04,13,14,41,10.10
2010,04,13,14,42,10.20
2010,04,13,14,43,10.20
2010,04,13,14,44,10.20
2010,04,13,14,45,10.10
2010,04,13,14,46,10.20
2010,04,13,14,47,10.10
2010,04,13,14,48,10.10
2010,04,13,14,49,10.10
2010,04,13,14,50,10.00
2010,04,13,14,51,10.00
2010,04,13,14,52,9.90
2010,04,13,14,53,9.90
2010,04,13,14,54,10.00
2010,04,13,14,55,10.00
2010,04,13,14,56,10.00
2010,04,13,14,57,10.10
2010,04,13,14,58,10.10
2010,04,13,14,59,10.10
2010,04,13,15,00,10.10
2010,04,13,15,01,10.10
2010,04,13,15,02,10.10
2010,04,13,15,03,10.10
2010,04,13,15,04,10.20
2010,04,13,15,05,10.20
2010,04,13,15,06,10.30
2010,04,13,15,07,10.30
2010,04,13,15,08,10.40
2010,04,13,15,09,10.40
2010,04,13,15,10,10.40
2010,04,13,15,11,10.50
2010,04,13,15,12,10.50
2010,04,13,15,13,10.50
2010,04,13,15,14,10.60
2010,04,13,15,15,10.60
2010,04,13,15,16,10.60
2010,04,13,15,17,10.60
2010,04,13,15,18,10.60
2010,04,13,15,19,10.60
2010,04,13,15,20,10.60
2010,04,13,15,21,10.60
2010,04,13,15,22,10.60
2010,04,13,15,23,10.60
2010,04,13,15,24,10.60
2010,04,13,15,25,10.60
2010,04,13,15,26,10.60
2010,04,13,15,27,10.60
2010,04,13,15,28,10.60
2010,04,13,15,29,10.60
2010,04,13,15,30,10.60
2010,04,13,15,31,10.60
2010,04,13,15,32,10.70
2010,04,13,15,33,10.70
2010,04,13,15,34,10.70
2010,04,13,15,35,10.70
2010,04,13,15,36,10.70
2010,04,13,15,37,10.70
2010,04,13,15,38,10.70
2010,04,13,15,39,10.60
2010,04,13,15,40,10.60
2010,04,13,15,41,10.60
2010,04,13,15,42,10.60
2010,04,13,15,43,10.60
2010,04,13,15,44,10.60
2010,04,13,15,45,10.60
2010,04,13,15,46,10.60
2010,04,13,15,47,10.60
2010,04,13,15,48,10.60
2010,04,13,15,49,10.60
2010,04,13,15,50,10.50
2010,04,13,15,51,10.50
2010,04,13,15,52,10.50
2010,04,13,15,53,10.50
2010,04,13,15,54,10.40
2010,04,13,15,55,10.40
2010,04,13,15,56,10.40
2010,04,13,15,57,10.40
2010,04,13,15,58,10.30
2010,04,13,15,59,10.30
2010,04,13,16,00,10.30
2010,04,13,16,01,10.30
2010,04,13,16,02,10.30
2010,04,13,16,03,10.30
2010,04,13,16,04,10.30
2010,04,13,16,05,10.30
2010,04,13,16,06,10.30
2010,04,13,16,07,10.30
2010,04,13,16,08,10.30
2010,04,13,16,09,10.30
2010,04,13,16,10,10.30
2010,04,13,16,11,10.30
2010,04,13,16,12,10.30
2010,04,13,16,13,10.30
2010,04,13,16,14,10.30
2010,04,13,16,15,10.30
2010,04,13,16,16,10.30
2010,04,13,16,17,10.30
2010,04,13,16,18,10.30
2010,04,13,16,19,10.30
2010,04,13,16,20,10.20
2010,04,13,16,21,10.20
2010,04,13,16,22,10.20
2010,04,13,16,23,10.10
2010,04,13,16,24,10.10
2010,04,13,16,25,10.00
2010,04,13,16,26,10.00
2010,04,13,16,27,9.90
2010,04,13,16,28,9.90
2010,04,13,16,29,9.80
2010,04,13,16,30,9.80
2010,04,13,16,31,9.80
2010,04,13,16,32,9.80
2010,04,13,16,33,9.70
2010,04,13,16,34,9.70
2010,04,13,16,35,9.70
2010,04,13,16,36,9.70
2010,04,13,16,37,9.70
2010,04,13,16,38,9.70
2010,04,13,16,39,9.60
2010,04,13,16,40,9.60
2010,04,13,16,41,9.60
2010,04,13,16,42,9.60
2010,04,13,16,43,9.60
2010,04,13,16,44,9.60
2010,04,13,16,45,9.60
2010,04,13,16,46,9.60
2010,04,13,16,47,9.60
2010,04,13,16,48,9.60
2010,04,13,16,49,9.60
2010,04,13,16,50,9.60
2010,04,13,16,51,9.60
2010,04,13,16,52,9.60
2010,04,13,16,53,9.60
2010,04,13,16,54,9.70
2010,04,13,16,55,9.60
2010,04,13,16,56,9.60
2010,04,13,16,57,9.60
2010,04,13,16,58,9.60
2010,04,13,16,59,9.60
2010,04,13,17,00,9.60
2010,04,13,17,01,9.60
2010,04,13,17,02,9.50
2010,04,13,17,03,9.50
2010,04,13,17,04,9.50
2010,04,13,17,05,9.50
2010,04,13,17,06,9.50
2010,04,13,17,07,9.50
2010,04,13,17,08,9.50
2010,04,13,17,09,9.40
2010,04,13,17,10,9.40
2010,04,13,17,11,9.40
2010,04,13,17,12,9.40
2010,04,13,17,13,9.40
2010,04,13,17,14,9.40
2010,04,13,17,15,9.40
2010,04,13,17,16,9.40
2010,04,13,17,17,9.40
2010,04,13,17,18,9.40
2010,04,13,17,19,9.40
2010,04,13,17,20,9.40
2010,04,13,17,21,9.40
2010,04,13,17,22,9.40
2010,04,13,17,23,9.30
2010,04,13,17,24,9.30
2010,04,13,17,25,9.40
2010,04,13,17,26,9.40
2010,04,13,17,27,9.30
2010,04,13,17,28,9.30
2010,04,13,17,29,9.30
2010,04,13,17,30,9.30
2010,04,13,17,31,9.30
2010,04,13,17,32,9.30
2010,04,13,17,33,9.30
2010,04,13,17,34,9.30
2010,04,13,17,35,9.30
2010,04,13,17,36,9.30
2010,04,13,17,37,9.30
2010,04,13,17,38,9.30
2010,04,13,17,39,9.30
2010,04,13,17,40,9.30
2010,04,13,17,41,9.20
2010,04,13,17,42,9.20
2010,04,13,17,43,9.20
2010,04,13,17,44,9.10
2010,04,13,17,45,9.10
2010,04,13,17,46,9.10
2010,04,13,17,47,9.10
2010,04,13,17,48,9.10